{"data":{"norad_id":69772,"intl_designator":"2026-151K","name":"KUIPER-00612","alt_names":[],"object_type":"PAYLOAD","status":"ACTIVE","operator":null,"country":"US","launch_date":"2026-07-02","launch_site_code":"AFETR","launch_vehicle":null,"mission":null,"orbit_class":"UNKNOWN","rcs_meters":null,"size_class":null,"mass_kg":null,"dimensions":null,"purposes":[],"wikipedia_slug":null,"has_3d_model":false,"image_url":null,"decayed_at":null,"tle_current":{"epoch":"2026-09-20T04:50:06.405792Z","epoch_age_seconds":51267,"freshness":"FRESH","line1":"1 69772U 26151K   26263.20146303  .00049082  00000+0  64630-2 0  9997","line2":"2 69772  51.9008 233.0197 0001333  81.7851 278.3262 14.79654526 12092","mean_motion":14.79654526,"eccentricity":0.0001333,"inclination_deg":51.9008,"raan_deg":233.0197,"arg_perigee_deg":81.7851,"mean_anomaly_deg":278.3262,"bstar":0.006463,"rev_number":1209,"period_min":97.320014550478,"perigee_km":629.48060049327,"apogee_km":631.34908041394,"semimajor_km":7008.5518404536,"source":"CELESTRAK","updated_at":"2026-09-20T09:00:25.090240Z"}}}